Simultaneous Nadir Overpasses (SNOs) Predictions

Prediction of SNOs between AQUA and NOAA-19 Satellite Orbit:

Table of predicted SNOs for the next 14.0 days since TLE Epoch: 12/14/2018
Index Date (AQUA) Time (AQUA) Lat,Lon (AQUA) SZA (AQUA ) Date (NOAA-19) Time (NOAA-19) Lat,Lon (NOAA-19) SZA (NOAA-19 ) Distance(km) Time Diff (sec)
1 12/14/2018 23:47:45 -80.60, -33.24 74.59 12/14/2018 23:46:51 -80.62, -33.30 74.55 2.06 54
2 12/15/2018 00:37:13 80.63, 134.08 105.47 12/15/2018 00:37:56 80.63, 134.19 105.44 1.90 43
3 12/17/2018 05:21:31 80.62, 63.12 105.57 12/17/2018 05:20:27 80.61, 63.16 105.59 1.41 64
4 12/17/2018 06:10:57 -80.62,-129.22 74.43 12/17/2018 06:11:21 -80.63,-129.09 74.45 2.47 24
5 12/19/2018 11:44:42 80.61, -32.55 105.64 12/19/2018 11:44:57 80.62, -32.70 105.66 2.86 15
6 12/21/2018 17:18:26 -80.60, 64.09 74.33 12/21/2018 17:18:22 -80.62, 64.10 74.31 1.87 4
7 12/23/2018 22:52:11 80.60, 160.72 105.68 12/23/2018 22:51:57 80.61, 160.64 105.70 2.35 14
8 12/23/2018 23:41:35 -80.54, -30.99 74.44 12/23/2018 23:42:49 -80.67, -30.66 74.39 15.66 74
9 12/26/2018 04:25:55 -80.60,-102.69 74.36 12/26/2018 04:25:23 -80.61,-102.76 74.33 1.94 32
10 12/26/2018 05:15:23 80.62, 64.64 105.69 12/26/2018 05:16:27 80.62, 64.69 105.66 1.01 64
11 12/28/2018 09:59:40 80.59, -6.11 105.57 12/28/2018 09:58:57 80.61, -6.14 105.60 1.47 43




NCC Satellite Simultaneous Nadir Overpasses (SNOs) Prediction Service
